{"data":{"norad_id":66500,"epoch":"2026-05-24T19:51:59.045472Z","epoch_age_seconds":90669,"freshness":"FRESH","line1":"1 66500U 25263R   26144.82776673  .00018253  00000+0  67093-3 0  9994","line2":"2 66500  43.0005 284.1417 0001098 262.4682  97.6044 15.27591466 30500","mean_motion":15.27591466,"eccentricity":0.0001098,"inclination_deg":43.0005,"raan_deg":284.1417,"arg_perigee_deg":262.4682,"mean_anomaly_deg":97.6044,"bstar":0.00067093,"rev_number":3050,"period_min":94.266041153702,"perigee_km":482.26140846196,"apogee_km":483.7681173891,"semimajor_km":6861.1517629255,"source":"CELESTRAK","updated_at":"2026-05-25T13:38:21.244958Z"}}